Flag for Guadeloupe Weather past 2 weeks in Pointe-à-Pitre, Guadeloupe

Now
75 °F

Clear.


Feels Like: 76 °F
Forecast: 76 / 86 °F
Wind: 5 mph from Southeast

Location: Le Raizet - Guadeloupe

Current Time: May 7, 2015 at 2:41:36 AM

Latest Report: May 7, 2015 at 2:00 AM


Visibility: N/A

Pressure: 30.04 "Hg

Humidity: 78%

Dew point: 68 °F

Location of Pointe-à-PitreLocation

Historic Weather in Pointe-à-Pitre — Graph

°F

Pointe-à-Pitre temperature yesterday

Maximum temperature yesterday: 88 °F (at 11:30 AM)
Minimum temperature yesterday: 73 °F (at 5:30 AM)
Average temperature yesterday: 80 °F

Past Weeks' High & Low Weather Summary

 TemperatureHumidityPressure
High88 °F (Apr 27, 12:30 PM)94% (Apr 23, 6:30 AM)30.12 "Hg (Apr 23, 6:30 AM)
Low72 °F (Apr 22, 2:30 AM)43% (May 5, 11:30 AM)29.89 "Hg (Apr 27, 3:00 PM)
Average80 °F72%29.99 "Hg
* Reported Apr 22 1:00 AM — May 7 1:30 AM, Pointe-à-Pitre, Weather by CustomWeather, © 2015

Note: Actual official high and low records may vary slightly from our data, if they occured in-between our weather recording intervals... More about our weather records

Advertising

Pointe-à-Pitre weather history for previous 24 hours

 ConditionsComfort  
Time TempWeatherWind HumidityBarometerVisibility
1:30 AM
Thu, May 7
77 °FClear.5 mph69%30.04 "HgN/A
1:00 AM77 °FPassing clouds.5 mph74%30.04 "HgN/A
12:30 AM77 °FPassing clouds.2 mph74%30.04 "HgN/A
12:00 AM77 °FPassing clouds.3 mph74%30.07 "HgN/A
11:30 PM
Wed, May 6
77 °FClear.3 mph69%30.07 "HgN/A
11:00 PM77 °FClear.5 mph69%30.07 "HgN/A
10:30 PM79 °FClear.7 mph65%30.07 "HgN/A
10:00 PM79 °FPassing clouds.6 mph65%30.07 "HgN/A
9:30 PM79 °FClear.7 mph65%30.07 "HgN/A
9:00 PM79 °FClear.8 mph65%30.07 "HgN/A
8:30 PM79 °FClear.10 mph70%30.04 "HgN/A
8:00 PM79 °FPartly cloudy.9 mph70%30.04 "HgN/A
7:30 PM79 °FPassing clouds.8 mph70%30.04 "HgN/A
7:07 PM79 °FPassing clouds.9 mph70%30.04 "HgN/A
6:30 PM81 °FPassing clouds.10 mph66%30.04 "HgN/A
6:00 PM81 °FScattered clouds.15 mph66%30.01 "HgN/A
5:00 PM82 °FScattered clouds.18 mph55%30.01 "HgN/A
4:30 PM84 °FScattered clouds.16 mph55%30.01 "HgN/A
4:00 PM84 °FScattered clouds.17 mph51%30.01 "HgN/A
3:30 PM84 °FScattered clouds.17 mph51%30.01 "HgN/A
3:00 PM86 °FPartly sunny.18 mph52%30.01 "HgN/A
2:30 PM86 °FPartly sunny.18 mph49%30.01 "HgN/A
2:00 PM86 °FPartly sunny.16 mph49%30.01 "HgN/A
1:30 PM88 °FPartly sunny.17 mph46%30.04 "HgN/A
1:00 PM86 °FPartly sunny.20 mph49%30.04 "HgN/A
12:30 PM88 °FPartly sunny.17 mph46%30.07 "HgN/A
12:00 PM86 °FPartly sunny.18 mph49%30.07 "HgN/A
11:30 AM88 °FPartly sunny.17 mph46%30.07 "HgN/A
11:00 AM86 °FPartly sunny.17 mph49%30.07 "HgN/A
10:30 AM86 °FPartly sunny.15 mph49%30.09 "HgN/A
10:04 AM84 °FPartly sunny.17 mph55%30.09 "HgN/A
9:30 AM84 °FPartly sunny.16 mph55%30.09 "HgN/A
9:00 AM84 °FPartly sunny.15 mph55%30.09 "HgN/A
8:30 AM84 °FScattered clouds.15 mph55%30.09 "HgN/A
8:00 AM82 °FScattered clouds.12 mph62%30.07 "HgN/A
7:30 AM81 °FPassing clouds.10 mph66%30.07 "HgN/A
7:00 AM79 °FPassing clouds.7 mph70%30.07 "HgN/A
6:30 AM77 °FPartly sunny.6 mph79%30.07 "HgN/A
6:00 AM75 °FPartly sunny.3 mph78%30.07 "HgN/A
5:30 AM73 °FPassing clouds.2 mph83%30.07 "HgN/A
5:00 AM75 °FPassing clouds.5 mph78%30.04 "HgN/A
4:30 AM75 °FClear.6 mph74%30.04 "HgN/A
4:00 AM75 °FPassing clouds.5 mph78%30.04 "HgN/A
3:30 AM75 °FClear.6 mph78%30.04 "HgN/A
3:00 AM75 °FPassing clouds.6 mph78%30.04 "HgN/A
2:30 AM75 °FPassing clouds.2 mph78%30.04 "HgN/A
2:00 AM75 °FClear.3 mph78%30.04 "HgN/A
Weather by CustomWeather, © 2015

See weather overviewHow to use our weather pages